Lid_Strength_Index
10 11 11 10 9 9 10 11 12 10 8 9 10 10 9 7 7 7 7 6 6 5 3 4 3 3 3 3 2 2 2 1 1 1 2 2 2 2 2 1 1 1 1 0
11 12 9 9 8 9 10 11 11 9 8 9 10 11 8 8 7 7 7 6 6 5 5 4 4 3 4 3 2 2 2 2 1 1 1 1 2 2 1 1 1 1 0 0
12 9 8 8 9 10 11 12 11 11 9 9 11 12 11 8 7 7 6 6 5 5 5 5 4 3 3 3 3 2 2 2 1 1 1 1 1 1 2 2 1 1 0 0
11 9 8 9 10 10 13 8 9 11 12 15 11 17 12 10 9 8 7 7 6 5 4 4 4 4 3 2 2 2 2 1 1 1 1 2 2 3 2 2 1 1 1 1
10 9 10 10 9 8 10 8 9 10 12 14 13 15 12 11 11 9 8 7 6 5 5 4 4 3 2 2 2 2 1 1 2 1 1 2 2 2 2 2 2 2 1 1
10 9 10 9 7 7 7 9 10 11 12 17 14 15 15 13 11 9 7 6 6 5 5 4 3 3 3 2 2 2 2 2 1 1 1 2 2 2 2 2 3 2 2 2
12 12 11 8 10 8 9 12 16 17 18 18 15 15 13 10 9 8 8 7 6 5 5 5 4 4 3 3 2 2 2 2 2 1 1 1 2 2 2 3 2 2 2 2
14 15 11 9 9 10 11 12 15 19 19 17 13 16 13 9 7 7 7 6 6 6 5 4 4 4 3 3 3 2 2 2 2 2 2 1 4 3 1 1 2 1 1 1
14 15 11 10 10 8 11 13 11 14 15 16 15 13 10 9 8 7 7 7 7 6 5 5 4 4 3 3 3 3 2 2 2 2 2 2 1 2 1 1 1 1 1 1
12 15 13 11 11 9 10 9 13 14 19 20 16 16 14 11 10 8 8 8 7 6 5 5 4 4 3 3 3 2 2 2 2 3 3 2 2 1 1 2 1 2 3 2
13 13 14 13 14 14 11 12 13 13 15 17 19 16 10 10 9 9 8 7 7 6 5 5 4 3 3 3 3 3 3 4 3 3 3 3 2 2 2 2 2 2 2 2
12 14 15 14 13 11 10 10 12 14 16 15 15 14 8 8 8 8 7 7 6 5 5 5 4 4 4 3 4 4 3 3 3 3 4 4 3 2 2 2 2 2 2 2
11 14 17 16 15 13 12 12 11 12 12 16 16 14 9 9 9 8 8 7 7 6 6 5 5 4 4 4 4 4 3 3 3 3 2 3 2 2 2 2 2 2 2 2
8 15 14 15 15 13 12 11 11 13 14 14 14 12 11 10 10 8 7 7 7 6 6 5 5 5 5 5 4 4 3 3 2 2 3 3 2 2 2 2 2 2 2 2
11 13 14 14 13 12 11 11 12 13 13 13 12 12 10 9 9 8 7 7 7 7 6 6 5 6 5 5 4 3 3 2 2 3 3 3 3 3 3 3 3 3 3 3
12 14 15 14 11 11 12 11 10 11 11 12 11 11 9 8 8 8 7 7 7 7 6 5 5 5 5 4 4 3 3 3 3 3 3 3 3 4 4 4 4 4 5 5
13 14 14 15 13 12 14 12 11 10 10 10 13 10 9 9 8 7 7 7 7 6 6 5 5 4 4 3 3 3 3 3 3 3 3 3 2 3 4 5 5 5 5 5
12 15 15 15 14 16 12 10 9 10 9 9 8 9 8 8 7 6 7 6 6 6 5 5 4 4 3 3 3 3 3 3 3 3 2 2 3 3 5 5 6 6 7 6
12 15 15 16 16 14 10 9 10 11 10 9 9 8 8 7 7 8 5 5 5 5 4 4 4 3 3 3 3 3 4 4 4 4 4 4 4 5 6 6 7 6 6 6
10 14 14 16 16 16 12 9 7 8 12 8 8 8 8 8 12 10 6 5 5 4 4 4 3 3 3 4 4 4 5 5 6 6 5 5 5 6 6 5 6 6 6 6
13 13 14 15 16 13 10 8 7 13 11 8 7 7 7 9 8 6 5 5 4 4 4 4 3 3 4 4 4 6 5 5 6 6 6 7 6 5 5 6 7 6 7 6
14 15 15 15 16 16 8 8 11 9 7 7 7 7 7 6 6 6 5 5 4 4 4 4 4 4 5 5 5 6 6 6 6 7 7 8 6 4 5 7 7 7 7 7
14 12 13 13 13 9 8 8 6 7 8 7 7 6 6 6 7 6 6 5 5 5 5 4 6 7 7 7 6 7 7 7 7 7 7 5 5 6 6 6 6 7 7 7
11 9 12 11 10 9 7 6 6 6 7 6 6 6 5 7 6 6 5 5 6 6 6 6 7 7 8 7 7 7 8 7 7 7 6 7 7 7 7 7 6 6 7 8
10 9 11 11 9 8 7 6 6 5 5 5 5 5 5 5 6 5 5 6 7 7 7 6 7 8 9 9 9 9 8 7 8 8 7 8 8 9 8 8 8 8 7 8
9 10 11 12 8 8 8 6 5 6 6 5 5 5 5 5 5 5 6 6 7 8 8 8 9 9 9 9 9 8 8 8 8 7 7 8 9 8 8 10 10 8 8 8